Weather Roundup
Issued by NWS

Home | Current Version | Previous Version | Graphics & Text | Print | Product List | Glossary Off
Versions: 1 2 3 4 5 6 7 8 9 10 11 12 13 14 15 16 17 18 19 20 21 22 23 24 25 26 27 28 29 30 31 32 33 34 35 36 37 38 39 40 41 42 43 44 45 46 47 48 49 50

000
NZUS93 KARX 250410
HRRWXR

CURRENT HOURLY OBSERVATIONS ACROSS
MUCH OF THE UPPER MISSISSIPPI VALLEY
NATIONAL WEATHER SERVICE LA CROSSE WI
1100 PM CDT FRI APR 24 2015


...SOUTHEAST MINNESOTA...


CITY           SKY/WX    TMP DP  RH WIND       PRES   REMARKS
ROCHESTER      CLOUDY    42  39  89 SE15      29.81F
ROCHESTER/MAYO CLOUDY    42  42  99 E14G22    29.81F
WINONA         NOT AVBL
AUSTIN         CLOUDY    43  39  87 E15G21    29.77F
ALBERT LEA     CLOUDY    45  41  87 E12       29.76S
DODGE CENTER   CLOUDY    43  41  93 SE20      29.77F
PRESTON        CLOUDY    41  38  86 E14G20    29.82R
OWATONNA       CLOUDY    43  39  87 E17G23    29.77F
FARIBAULT      CLOUDY    45  39  81 E13G21    29.79S
$$

...ELSEWHERE IN MINNESOTA...


CITY           SKY/WX    TMP DP  RH WIND       PRES   REMARKS
MINNEAPOLIS    CLOUDY    44  41  89 E14       29.83R
INTNL FALLS    CLOUDY    39  21  48 E7        29.92S WCI  34
DULUTH         CLOUDY    35  24  64 E14       29.91S WCI  26
RED WING       CLOUDY    45  41  87 E10G17    29.84R
REDWOOD FALLS  CLOUDY    45  41  86 E12G18    29.72R
MANKATO        CLOUDY    45  37  76 E16G23    29.75F
WORTHINGTON    CLOUDY    45  41  87 SE15      29.66R
FAIRMONT       CLOUDY    45  19  36 SE17      29.69S
$$

...SOUTHWEST WISCONSIN...


CITY           SKY/WX    TMP DP  RH WIND       PRES   REMARKS
LA CROSSE      LGT RAIN  44  39  82 VRB6      29.87F
PRAIRIE DU CHI CLOUDY    44  37  74 E12       29.85R
BOSCOBEL       CLOUDY    44  38  79 E6        29.89R
LONE ROCK      CLOUDY    42  35  76 E15       29.91R
PLATTEVILLE    CLOUDY    43  38  84 E16G24    29.85S
FORT MC COY    CLOUDY    42  37  84 E17G24    29.91S
CAMP DOUGLAS   CLOUDY    41  41 100 E13       29.92S
VIROQUA        CLOUDY    40  39  94 E15       29.87R WCI  32
WIS DELLS      CLOUDY    39  33  80 E12       29.92S WCI  31
$$

...ELSEWHERE IN WISCONSIN...


CITY           SKY/WX    TMP DP  RH WIND       PRES   REMARKS
MILWAUKEE      CLOUDY    38  33  82 NE8       29.97R WCI  32
MADISON        CLOUDY    40  34  79 E13       29.93R WCI  32
GREEN BAY      CLOUDY    41  25  53 S3        30.01R
EAU CLAIRE     CLOUDY    44  35  70 SE12      29.89S
BLACK RVR FLS  LGT RAIN  41  41  99 E8        29.91S
MEDFORD        DRIZZLE   39  33  79 SE8       29.93S WCI  34
WAUSAU         CLOUDY    41  32  70 SE9       29.94F
WIS RAPIDS     LGT RAIN  41  36  82 SE9       29.96R
MARSHFIELD     LGT RAIN  40  33  76 SE12      29.93S WCI  33
RICE LAKE      CLOUDY    46  30  52 SE10      29.89S
$$

...NORTHEAST IOWA...


CITY           SKY/WX    TMP DP  RH WIND       PRES   REMARKS
DECORAH        CLOUDY    43  39  87 E16G25    29.81F
MASON CITY     CLOUDY    44  40  85 E16G22    29.75S
CHARLES CITY   CLOUDY    43  41  93 E17       29.78S
OELWEIN        CLOUDY    43  41  93 E16G23    29.78S
$$

...ELSEWHERE IN IOWA...


CITY           SKY/WX    TMP DP  RH WIND       PRES   REMARKS
DES MOINES     DRIZZLE   50  45  83 E14G21    29.65F
IOWA CITY      CLOUDY    48  42  80 E14       29.77R
FORT DODGE     CLOUDY    46  41  81 E15       29.69S
$$

...NORTHERN ILLINOIS...


CITY           SKY/WX    TMP DP  RH WIND       PRES   REMARKS
CHICAGO-OHARE  CLOUDY    41  35  79 E9        29.92R
CHICAGO-MIDWAY LGT RAIN  44  40  85 NE12      29.91F
MOLINE         CLOUDY    49  41  74 E16       29.79S
ROCKFORD       CLOUDY    42  36  79 E15       29.90F
PEORIA         CLOUDY    58  32  37 SE8       29.79F
$$

NOTE: "FAIR" INDICATES FEW OR NO CLOUDS BELOW 12,000 FEET WITH NO
SIGNIFICANT WEATHER AND/OR OBSTRUCTIONS TO VISIBILITY. WIND
SPEEDS ARE IN MILES-PER-HOUR.



USA.gov is the U.S. government's official web portal to all federal, state and local government web resources and services.